Location: Bretagne
(43.8474°N, 0.4650°W)
Time: 12:30:02
(UTC+00:00)

Radarsat Rocket - Pass Details

Date: 25 April 2026
Orbit: 933 x 1491 km, 100.5° (Epoch: 12 May)

Event Time Altitude Azimuth Distance (km) Brightness Sun altitude
Rises 20:07:33 0° 200° (SSW) 4,560 7.4 -12.2°
Reaches altitude 10° 20:10:53 10° 211° (SSW) 3,615 6.9 -12.7°
Maximum altitude 20:17:58 28° 267° (W) 2,500 6.7 -13.7°
Drops below altitude 10° 20:25:02 10° 323° (NW) 3,584 8.2 -14.8°
Sets 20:28:22 0° 335° (NNW) 4,515 8.6 -15.2°
